Preview of NWS' New Version of Forecast
This preview is not operational and should not be used for support decisions.

Regional Weather Roundup (RWR)

Issued by National Weather Service (NWS)

                            
000
ASUS43 KDTX 201301
RWRMI 
MICHIGAN HOURLY REGIONAL WEATHER ROUNDUP
NATIONAL WEATHER SERVICE DETROIT/PONTIAC MI
900 AM EDT THU JUN 20 2019

NOTE: "FAIR" INDICATES FEW OR NO CLOUDS BELOW 12,000 FEET WITH NO
SIGNIFICANT WEATHER AND/OR OBSTRUCTION TO VISIBILITY.

MIZ047>049-052>055-059>063-066>070-074>076-081>083-201400-
SOUTHEAST LOWER MICHIGAN
  
CITY           SKY/WX    TMP DP  RH WIND       PRES   REMARKS
ADRIAN         HVY RAIN  63  61  93 E10       29.59F FOG              
ALMA           RAIN      60  58  94 NE8       29.66S                  
ANN ARBOR      LGT RAIN  63  62  97 NE7       29.60S FOG              
BAD AXE        CLOUDY    58  57  96 NE8       29.65S                  
CARO           DRIZZLE   59  58  97 N5        29.64S                  
DETROIT CITY   LGT RAIN  64  60  87 N5        29.61S FOG              
DETROIT        LGT RAIN  63  61  93 NE7       29.61S FOG              
FLINT          CLOUDY    61  58  90 NE7       29.64R                  
GROSSE ILE     LGT RAIN  62  61  96 NE8       29.60R                  
HILLSDALE      RAIN      61  59  93 E9        29.59R                  
HOWELL         HVY RAIN  60  58  92 NE5       29.63R                  

CITY           SKY/WX    TMP DP  RH WIND       PRES   REMARKS
JACKSON        RAIN      62  62 100 NE7       29.60S FOG              
LAMBERTVILLE   RAIN      64  63  99 NE5       29.58F                  
LANSING        LGT RAIN  60  58  92 NE8       29.63S FOG              
LAPEER         LGT RAIN  60  60  98 NE5       29.64S                  
MASON          RAIN      60  59  96 NE7       29.62S                  
MONROE         LGT RAIN  64  63  98 NE5       29.59R                  
PONTIAC        LGT RAIN  61  60  97 NE8       29.61R FOG              
PORT HOPE        N/A     54  53  97 NE10      29.65F                  
PORT HURON     CLOUDY    61  57  88 N6        29.62S                  
TRI CITIES     LGT RAIN  60  60 100 NE15      29.66S FOG              
MIDLAND        LGT RAIN  59  57  94 N3        29.66S                  
TROY           LGT RAIN  63  58  84 NE6       29.64R                  
SAGINAW HB     LGT RAIN  61  59  94 N7        29.65S                  
$$
MIZ043>046-050>051-056>058-064>065-071>073-077>080-201400-
SOUTHWEST LOWER MICHIGAN
  
CITY           SKY/WX    TMP DP  RH WIND       PRES   REMARKS
BATTLE CREEK   LGT RAIN  62  61  96 NE12      29.60S                  
BENTON HARBOR  CLOUDY    64  60  87 NE10G18   29.59R                  
BIG RAPIDS     CLOUDY    60  58  94 E8        29.67R                  
COLDWATER      LGT RAIN  62  62 100 E12       29.58S                  
FREMONT        LGT RAIN  61  59  95 NE5       29.66R                  
HOLLAND        RAIN      61  32  33 NE6       29.63R                  
GRAND RAPIDS   LGT RAIN  60  58  92 NE12      29.63S                  
IONIA          RAIN      59  58  95 NE9       29.63S                  
KALAMAZOO      LGT RAIN  63  60  90 NE9       29.60R                  
LUDINGTON      CLOUDY    60  57  92 NE3       29.69R                  
MARSHALL       RAIN      62  62 100 NE3       29.60R                  
MOUNT PLEASANT LGT RAIN  59  58  99 NE8       29.66S                  
MUSKEGON       LGT RAIN  61  57  87 NE7       29.66R                  
SOUTH HAVEN    RAIN      63  62  96 NE8       29.60R                  
$$
MIZ016>042-201400-
NORTHERN LOWER MICHIGAN
  
CITY           SKY/WX    TMP DP  RH WIND       PRES   REMARKS
ALPENA         FAIR      61  51  70 NE12      29.72S                  
BEAVER ISLAND  FAIR      60  48  65 NE7       29.77S                  
BELLAIRE       FAIR      61  53  75 NE6       29.72S                  
CHARLEVOIX     FAIR      60  50  70 E8        29.77S                  
FRANKFORT      FAIR      63  53  70 NE7       29.72R                  
GAYLORD        FAIR      56  51  84 NE12      29.73S                  
HARBOR SPRINGS FAIR      60  51  73 E6        29.75R                  
HOUGHTON LAKE  PTSUNNY   58  52  80 NE12      29.70S                  
MANISTEE       FAIR      61  56  83 NE8       29.70R                  
OSCODA         PTSUNNY   56  56  98 NE8       29.68S                  
PELLSTON       FAIR      60  50  69 NE7       29.76S                  
ROGERS CITY    FAIR      54  50  86 CALM      29.75S                  
TRAVERSE CITY  CLOUDY    60  54  80 N7        29.71S                  
$$
MIZ007>008-015-201400-
EASTERN UPPER MICHIGAN
  
CITY           SKY/WX    TMP DP  RH WIND       PRES   REMARKS
KINROSS        FAIR      60  48  64 NE15      29.78S                  
MACKINAC ISLAN FAIR      60  48  64 NE9       29.77R                  
NEWBERRY       FAIR      57  50  76 N5        29.79S                  
S. S. MARIE    FAIR      64  47  53 MISG      29.78S                  
MUNISING         N/A     50  46  86 N7        29.83R                  
$$
MIZ004>006-011>014-085-201400-
CENTRAL UPPER MICHIGAN
  
CITY           SKY/WX    TMP DP  RH WIND       PRES   REMARKS
MANISTIQUE     FAIR      58  51  76 N7        29.78S                  
ESCANABA       FAIR      58  47  66 N3        29.80R                  
MENOMINEE      FAIR      57  49  74 N5        29.79R                  
SAWYER-GWINN   SUNNY     55  46  71 NE9       29.83R                  
$$
MIZ001>003-009>011-084-201400-
WESTERN UPPER MICHIGAN
  
CITY           SKY/WX    TMP DP  RH WIND       PRES   REMARKS
IRON MOUNTAIN  FAIR      57  45  64 N6        29.81S                  
HOUGHTON       FAIR      60  46  59 E7        29.85S                  
COPPER HARBOR    N/A     56  48  74 CALM      29.85R                  
IRONWOOD       FAIR      57  48  72 CALM      29.87S                  
$$

ABBREVIATIONS USED IN REMARKS
   TC - TEMPERATURE IN CELSIUS
  WCI - WIND CHILL INDEX
   HX - HEAT INDEX
  VSB - VISIBILITY